Weather History for Telfer, WE

Change the Weather History Date:

Tuesday, October 23, 2012

  Actual Average Record
Temperature  
Mean Temperature 93 °F -  
Max Temperature 106 °F - - ()
Min Temperature 80 °F - - ()
Cooling Degree Days 28    
Growing Degree Days 43 (Base 50)    
Moisture  
Dew Point 48 °F    
Average Humidity 21    
Maximum Humidity 42    
Minimum Humidity 5    
Precipitation  
Precipitation 0.04 in - - ()
Sea Level Pressure  
Sea Level Pressure 29.72 in    
Wind  
Wind Speed 8 mph ()    
Max Wind Speed 21 mph    
Max Gust Speed 31 mph    
T = Trace of Precipitation, MM = Missing Value Source: Averaged Metar Reports

Daily Weather History Graph

Daily Weather History Graph

Search for Another Location

Airport:

Trip Planner

Search our weather history database for the weather conditions in past years. The results will help you decide how hot, cold, wet, or windy it might be!

Date:

Astronomy

Oct. 23, 2012 Rise Set
Actual Time 5:13 AM AWST 5:57 PM AWST
Civil Twilight 4:50 AM AWST 6:20 PM AWST
Nautical Twilight 4:23 AM AWST 6:47 PM AWST
Astronomical Twilight 3:56 AM AWST 7:15 PM AWST
Moon 12:21 PM AWST (10/23) 12:38 AM AWST (10/23)
Length of Visible Light 13h 30m
Length of Day
12h 44m
First Quarter, 61% of the Moon is Illuminated
Oct 23
First Quarter
Oct 30
Full
Nov 7
Last Quarter
Nov 14
New
Nov 20
First Quarter

Hourly Weather History & Observations

Time (AWST) Temp. Heat Index Dew Point Humidity Pressure Visibility Wind Dir Wind Speed Gust Speed Precip Events Conditions
12:00 AM 90 °F - 51 °F 17% 29.71 in - WNW 9.2 mph - -  
12:00 AM 91.4 °F - 51.8 °F 26% 29.77 in - WNW 9.2 mph - N/A   Unknown
1:00 AM 91.4 °F - 51.8 °F 26% 29.74 in - WNW 11.5 mph - N/A   Unknown
2:00 AM 89 °F - 52 °F 19% 29.68 in - West 9.2 mph - -  
2:00 AM 89.6 °F - 51.8 °F 27% 29.71 in - West 9.2 mph - N/A   Unknown
3:00 AM 90 °F - 49 °F 16% 29.67 in - WSW 9.2 mph - -  
3:00 AM 89.6 °F - 50.0 °F 26% 29.71 in - WSW 9.2 mph - N/A   Unknown
4:00 AM 86.0 °F - 51.8 °F 31% 29.74 in - NNW 8.1 mph - N/A   Unknown
5:00 AM 82 °F - 54 °F 28% 29.70 in - NNW 4.6 mph - -  
5:00 AM 82.4 °F 81.4 °F 53.6 °F 37% 29.74 in - NNW 4.6 mph - N/A   Unknown
6:00 AM 81 °F - 54 °F 29% 29.74 in - East 4.6 mph - -  
6:00 AM 80.6 °F 80.5 °F 55.4 °F 42% 29.77 in - East 4.6 mph - N/A   Unknown
7:00 AM 86.0 °F 84.5 °F 55.4 °F 35% 29.80 in - ENE 3.5 mph - N/A   Unknown
8:00 AM 93 °F - 53 °F 17% 29.75 in - ENE 6.9 mph - -  
8:00 AM 93.2 °F 90.8 °F 53.6 °F 26% 29.80 in - ENE 6.9 mph - N/A   Unknown
9:00 AM 96.8 °F - 51.8 °F 22% 29.80 in - ENE 8.1 mph - N/A   Unknown
10:00 AM 100.4 °F - 46.4 °F 16% 29.77 in - ENE 9.2 mph - N/A   Unknown
11:00 AM 102 °F - 42 °F 7% 29.71 in - NNE 6.9 mph - -  
11:00 AM 102.2 °F - 42.8 °F 13% 29.74 in - NNE 6.9 mph - N/A   Unknown
12:00 PM 105 °F - 42 °F 6% 29.68 in - East 6.9 mph - -  
1:00 PM 104.0 °F - 41.0 °F 12% 29.68 in - NNW 5.8 mph - N/A   Unknown
2:00 PM 106 °F - 41 °F 5% 29.63 in - ENE 8.1 mph - -  
2:00 PM 105.8 °F - 41.0 °F 11% 29.68 in - ENE 8.1 mph - N/A   Unknown
3:00 PM 105.8 °F - 37.4 °F 10% 29.65 in - ENE 5.8 mph - N/A   Unknown
3:15 PM 104.0 °F - 37.4 °F 10% 29.65 in - North 19.6 mph - N/A   Unknown
5:00 PM 101 °F - 41 °F 7% 29.62 in - NNW 12.7 mph - -  
5:00 PM 100.4 °F - 41.0 °F 13% 29.68 in - NNW 12.7 mph - N/A   Unknown
6:00 PM 100 °F - 40 °F 6% 29.64 in - WNW 8.1 mph - -  
7:00 PM 98.6 °F - 41.0 °F 14% 29.71 in - West 6.9 mph - N/A   Unknown
8:00 PM 97 °F - 42 °F 8% 29.68 in - WNW 4.6 mph - -  
8:00 PM 96.8 °F - 41.0 °F 15% 29.74 in - WNW 4.6 mph - N/A   Unknown
8:11 PM 96.8 °F - 46.4 °F 18% 29.74 in - WNW 19.6 mph - N/A   Unknown
8:13 PM 96.8 °F - 48.2 °F 19% 29.74 in - WNW 17.3 mph 28.8 mph N/A   Unknown
9:00 PM 95.0 °F - 46.4 °F 19% 29.80 in - ESE 10.4 mph - N/A   Unknown
9:19 PM 86.0 °F 84.9 °F 57.2 °F 37% 29.80 in - SE 20.7 mph - N/A   Unknown
10:00 PM 82.4 °F 82.0 °F 57.2 °F 42% 29.80 in - SE 15.0 mph - N/A   Unknown
10:06 PM 84.2 °F 83.0 °F 55.4 °F 37% 29.80 in - SE 17.3 mph 31.1 mph N/A   Unknown
11:00 PM 82 °F - 56 °F 31% 29.78 in - North 8.1 mph - -